EW9559 Weather Reports


time (UTC)temp
F
wind
direction
speed
knots
gust
knots
rain 1hr
in
rain 24hr
in
rain mn
in
humidity
%
barometer
mb
20260508140033 53 263 0.9 6.1 0.00 0.00 0.00 62 1021.1
20260508134531 53 273 0.9 7.0 0.00 0.00 0.00 63 1020.9
20260508133032 53 266 0.9 5.2 0.00 0.00 0.00 65 1020.8
20260508131645 53 275 0.0 4.3 0.00 0.00 0.00 65 1020.8
20260508130030 54 277 0.9 7.0 0.00 0.00 0.00 64 1020.7
20260508123032 54 279 0.0 4.3 0.00 0.00 0.00 62 1020.6
20260508121526 55 271 0.0 3.5 0.00 0.00 0.00 61 1020.5
20260508114645 54 270 0.0 5.2 0.00 0.00 0.00 60 1020.3
20260508113031 54 275 0.0 1.7 0.00 0.00 0.00 58 1020.3
20260508111605 56 251 0.0 4.3 0.00 0.00 0.00 54 1020.2
20260508110104 56 253 0.0 3.5 0.00 0.00 0.00 54 1020.1
20260508104644 55 257 0.0 3.5 0.00 0.00 0.00 56 1020.1
20260508101542 52 223 0.0 3.5 0.00 0.00 0.00 63 1020.1
20260508100103 51 281 0.0 1.7 0.00 0.00 0.00 63 1020.1
20260508094532 51 247 0.0 1.7 0.00 0.00 0.00 63 1020.1
20260508093032 53 247 0.0 0.9 0.00 0.00 0.00 59 1020.0
20260508091607 54 247 0.0 0.9 0.00 0.00 0.00 56 1019.9
20260508090031 55 253 0.0 1.7 0.00 0.00 0.00 53 1019.9
20260508084605 56 260 0.0 1.7 0.00 0.00 0.00 52 1019.9
20260508083030 56 273 0.0 1.7 0.00 0.00 0.00 50 1019.9
20260508081529 57 281 0.0 5.2 0.00 0.00 0.00 49 1020.0
20260508080106 57 277 0.0 5.2 0.00 0.00 0.00 48 1020.0
20260508074528 57 268 0.0 5.2 0.00 0.00 0.00 47 1020.0
20260508073033 58 252 0.0 3.5 0.00 0.00 0.00 45 1020.1
20260508071531 58 253 0.9 4.3 0.00 0.00 0.00 45 1020.0
20260508070030 58 271 0.0 5.2 0.00 0.00 0.00 44 1020.0
20260508064531 58 269 0.0 3.5 0.00 0.00 0.00 47 1020.0
20260508063030 57 262 0.0 6.1 0.00 0.00 0.00 49 1020.0
20260508061603 57 255 0.0 3.5 0.00 0.00 0.00 50 1020.0
20260508060029 56 259 0.0 2.6 0.00 0.00 0.00 51 1020.1
20260508054531 54 263 0.0 2.6 0.00 0.00 0.00 54 1020.0
20260508053030 55 247 0.0 0.9 0.00 0.00 0.00 53 1020.1
20260508051529 56 247 0.0 2.6 0.00 0.00 0.00 51 1020.1
20260508044531 58 270 0.0 3.5 0.00 0.00 0.00 46 1019.9
20260508043038 59 263 0.0 3.5 0.00 0.00 0.00 45 1019.9
20260508041527 59 252 0.0 3.5 0.00 0.00 0.00 44 1019.9
20260508040105 59 253 0.0 2.6 0.00 0.00 0.00 44 1019.6
20260508034533 58 272 0.0 2.6 0.00 0.00 0.00 44 1019.6
20260508033030 58 261 0.0 1.7 0.00 0.00 0.00 41 1019.4
20260508031607 60 262 0.0 1.7 0.00 0.00 0.00 37 1019.4
20260508030032 61 272 0.0 1.7 0.00 0.00 0.00 33 1019.4
20260508024603 62 266 0.0 2.6 0.00 0.00 0.00 31 1019.4
20260508021605 65 265 0.0 5.2 0.00 0.00 0.00 27 1019.2
20260508020028 66 271 0.0 4.3 0.00 0.00 0.00 26 1019.1
20260508014605 67 275 0.0 3.5 0.00 0.00 0.00 25 1019.0
20260508013030 68 266 0.0 3.5 0.00 0.00 0.00 25 1019.1
20260508011606 69 267 0.0 3.5 0.00 0.00 0.00 25 1019.2
20260508010031 68 265 0.0 3.5 0.00 0.00 0.00 24 1019.3
20260508004528 68 269 0.9 7.0 0.00 0.00 0.00 23 1019.2
20260508003029 69 270 0.0 5.2 0.00 0.00 0.00 23 1019.1
20260508001529 69 263 0.9 7.0 0.00 0.00 0.00 21 1019.2
20260508000032 70 274 0.9 7.0 0.00 0.00 0.00 22 1019.1
20260507234530 71 271 0.0 5.2 0.00 0.00 0.00 22 1019.1
20260507233027 70 264 0.0 6.1 0.00 0.00 0.00 23 1019.2
20260507230029 70 271 0.9 6.1 0.00 0.00 0.00 26 1019.5
20260507224528 70 275 0.9 7.0 0.00 0.00 0.00 27 1019.6
20260507223025 70 284 0.0 5.2 0.00 0.00 0.00 27 1019.6
20260507221645 70 273 0.0 6.1 0.00 0.00 0.00 29 1019.9
20260507220033 69 265 0.9 5.2 0.00 0.00 0.00 31 1020.0
20260507214530 69 255 0.9 7.0 0.00 0.00 0.00 32 1020.1
20260507213029 69 254 0.9 6.1 0.00 0.00 0.00 37 1020.1
20260507211541 68 252 0.0 5.2 0.00 0.00 0.00 40 1020.2
20260507210032 68 263 0.9 7.0 0.00 0.00 0.00 42 1020.2
20260507204604 67 273 0.9 6.1 0.00 0.00 0.00 43 1020.3
20260507203032 67 276 0.9 6.1 0.00 0.00 0.00 43 1020.3
20260507200030 66 274 0.9 7.8 0.00 0.00 0.00 45 1020.7
20260507191529 63 277 0.9 7.0 0.00 0.00 0.00 51 1021.1
20260507184529 62 253 1.7 10.4 0.00 0.00 0.00 54 1021.6
20260507183027 62 249 1.7 9.6 0.00 0.00 0.00 55 1021.6
20260507181530 62 247 0.9 7.8 0.00 0.00 0.00 56 1021.6
20260507174532 62 253 0.9 4.3 0.00 0.00 0.00 59 1021.9
20260507173028 60 253 0.9 7.0 0.00 0.00 0.00 61 1022.2
20260507171536 60 254 0.9 7.0 0.00 0.00 0.00 62 1022.5
20260507170028 59 242 0.9 5.2 0.00 0.00 0.00 61 1022.4
20260507164647 60 252 0.0 5.2 0.00 0.00 0.00 63 1022.6
20260507163034 58 263 0.0 3.5 0.00 0.00 0.00 66 1022.7
20260507161532 56 261 0.9 7.8 0.00 0.00 0.00 67 1022.6
20260507160104 56 269 0.9 5.2 0.00 0.00 0.00 70 1022.7
20260507154532 55 268 0.9 5.2 0.00 0.00 0.00 72 1022.7
20260507153032 54 277 0.0 4.3 0.00 0.00 0.00 73 1022.8
20260507151548 54 274 0.9 7.8 0.00 0.00 0.00 74 1022.9
20260507144532 52 271 0.0 3.5 0.00 0.00 0.00 78 1023.0
20260507143031 51 259 0.9 5.2 0.00 0.00 0.00 80 1023.0
20260507141532 51 259 0.9 7.0 0.00 0.00 0.00 80 1022.8